This is the latest recevied weather packets stored in our database for station/object KK6LVQ-13. If no packets are shown the sender has not sent any weather packets the latest 10 day(s).
| Time | Temp. | Humidity | Pressure | Rain* | Wind** | Luminosity | Snow |
|---|---|---|---|---|---|---|---|
| 1777598840 | 17.22° C | 69% | 1018.3 hPa | 0 mm | - | 123 W/m² | - |
| 1777598540 | 17.78° C | 68% | 1017.8 hPa | 0 mm | - | 137 W/m² | - |
| 1777598235 | 18.33° C | 65% | 1017.9 hPa | 0 mm | - | 152 W/m² | - |
| 1777597933 | 18.89° C | 63% | 1018 hPa | 0 mm | - | 167 W/m² | - |
| 1777597632 | 18.89° C | 61% | 1017.9 hPa | 0 mm | - | 182 W/m² | - |
| 1777597328 | 18.89° C | 59% | 1017.9 hPa | 0 mm | - | 195 W/m² | - |
| 1777597023 | 19.44° C | 58% | 1017.8 hPa | 0 mm | - | 211 W/m² | - |
| 1777596721 | 20° C | 54% | 1017.8 hPa | 0 mm | - | 225 W/m² | - |
| 1777596417 | 20.56° C | 51% | 1018 hPa | 0 mm | - | 241 W/m² | - |
| 1777596114 | 20.56° C | 49% | 1017.7 hPa | 0 mm | - | 257 W/m² | - |
| 1777595810 | 20.56° C | 50% | 1017.9 hPa | 0 mm | - | 274 W/m² | - |
| 1777595505 | 20.56° C | 45% | 1017.8 hPa | 0 mm | - | 289 W/m² | - |
| 1777595202 | 20.56° C | 45% | 1017.9 hPa | 0 mm | - | 308 W/m² | - |
| 1777594898 | 21.11° C | 43% | 1017.8 hPa | 0 mm | - | 322 W/m² | - |
| 1777594594 | 20.56° C | 42% | 1017.7 hPa | 0 mm | - | 337 W/m² | - |
| 1777594291 | 21.11° C | 43% | 1017.9 hPa | 0 mm | - | 353 W/m² | - |
| 1777593987 | 21.11° C | 43% | 1017.7 hPa | 0 mm | - | 370 W/m² | - |
| 1777593683 | 21.11° C | 42% | 1017.9 hPa | 0 mm | - | 390 W/m² | - |
| 1777593379 | 20.56° C | 43% | 1018.2 hPa | 0 mm | - | 404 W/m² | - |
| 1777593078 | 20.56° C | 44% | 1018 hPa | 0 mm | - | 421 W/m² | - |
| 1777592778 | 20.56° C | 44% | 1017.9 hPa | 0 mm | - | 435 W/m² | - |
| 1777592474 | 20.56° C | 44% | 1018.3 hPa | 0 mm | - | 452 W/m² | - |
| 1777592169 | 20.56° C | 48% | 1018.2 hPa | 0 mm | - | 467 W/m² | - |
| 1777591866 | 20.56° C | 50% | 1017.8 hPa | 0 mm | - | 480 W/m² | - |
| 1777591562 | 21.11° C | 54% | 1017.9 hPa | 0 mm | - | 493 W/m² | - |
* Rain latest hour (hover to see other rain measurements)
** Current wind speed in m/s (hover to see current wind gust speed)